TimeEAT,TemperatureF,Dew PointF,Humidity,Sea Level PressureIn,VisibilityMPH,Wind Direction,Wind SpeedMPH,Gust SpeedMPH,PrecipitationIn,Events,Conditions,WindDirDegrees,DateUTC
12:00 AM,78.8,73.4,83,29.86,6.2,ENE,4.6,-,N/A,,Partly Cloudy,70,2012-10-19 21:00:00
2:00 AM,78.8,75.2,89,29.83,6.2,Calm,Calm,-,N/A,,Scattered Clouds,0,2012-10-19 23:00:00
3:00 AM,78.8,75.2,89,29.83,6.2,SW,3.5,-,N/A,,Mostly Cloudy,230,2012-10-20 00:00:00
4:00 AM,77.0,75.2,94,29.83,6.2,North,3.5,-,N/A,,Mostly Cloudy,10,2012-10-20 01:00:00
5:00 AM,77.0,75.2,94,29.86,6.2,North,3.5,-,N/A,,Mostly Cloudy,360,2012-10-20 02:00:00
6:00 AM,77.0,75.2,94,29.86,6.2,North,3.5,-,N/A,,Scattered Clouds,350,2012-10-20 03:00:00
7:00 AM,78.8,75.2,89,29.89,6.2,NNE,3.5,-,N/A,,Scattered Clouds,30,2012-10-20 04:00:00
8:00 AM,80.6,75.2,84,29.92,6.2,NE,4.6,-,N/A,,Scattered Clouds,40,2012-10-20 05:00:00
9:00 AM,83,75,70,29.94,19,ENE,6.9,,,,Mostly Cloudy,60,2012-10-20 06:00:00
9:00 AM,82.4,75.2,79,29.95,6.2,ENE,6.9,-,N/A,,Mostly Cloudy,60,2012-10-20 06:00:00
10:00 AM,82.4,73.4,74,29.92,6.2,East,6.9,-,N/A,,Mostly Cloudy,90,2012-10-20 07:00:00
11:00 AM,82.4,73.4,74,29.92,6.2,East,5.8,-,N/A,Rain,Light Rain Showers,100,2012-10-20 08:00:00
12:00 PM,84.2,73.4,70,29.89,6.2,ESE,6.9,-,N/A,,Scattered Clouds,120,2012-10-20 09:00:00
1:00 PM,86.0,73.4,66,29.86,6.2,SE,10.4,-,N/A,,Partly Cloudy,130,2012-10-20 10:00:00
2:00 PM,86.0,73.4,66,29.86,6.2,ESE,11.5,-,N/A,,Scattered Clouds,120,2012-10-20 11:00:00
3:00 PM,83,73,64,29.84,19,East,9.2,,,,Partly Cloudy,100,2012-10-20 12:00:00
3:00 PM,84.2,73.4,70,29.83,6.2,East,9.2,-,N/A,,Scattered Clouds,100,2012-10-20 12:00:00
4:00 PM,82.4,73.4,74,29.83,6.2,ESE,15.0,-,N/A,,Mostly Cloudy,120,2012-10-20 13:00:00
5:00 PM,80.6,73.4,79,29.83,6.2,ESE,15.0,-,N/A,,Mostly Cloudy,120,2012-10-20 14:00:00
6:00 PM,80.6,73.4,79,29.86,6.2,SE,10.4,-,N/A,,Mostly Cloudy,130,2012-10-20 15:00:00
7:00 PM,78.8,73.4,83,29.86,6.2,ESE,9.2,-,N/A,,Scattered Clouds,110,2012-10-20 16:00:00
7:30 PM,78.8,73.4,83,29.89,6.2,ESE,10.4,-,N/A,,Mostly Cloudy,120,2012-10-20 16:30:00
9:00 PM,79,73,76,29.91,19,SE,6.9,,,,Partly Cloudy,130,2012-10-20 18:00:00
9:00 PM,78.8,73.4,83,29.92,6.2,SE,6.9,-,N/A,,Scattered Clouds,130,2012-10-20 18:00:00
9:30 PM,78.8,73.4,83,29.92,6.2,ESE,8.1,-,N/A,,Partly Cloudy,120,2012-10-20 18:30:00
10:30 PM,78.8,73.4,83,29.92,6.2,ESE,8.1,-,N/A,,Partly Cloudy,120,2012-10-20 19:30:00